Temperature
10 10 10 10 10 10 10 10 10 10 10 10 10 10 10 10 10 10 10 10 10 10 10 10 11 10 10 10 10 10 10 10 10 10 10 10 10 10 10 10 10 10 10
9 9 10 10 10 10 10 10 10 10 10 10 10 10 10 10 10 10 10 10 10 10 10 10 10 10 10 10 10 10 10 10 10 10 10 10 10 10 10 10 10 10 10
9 9 9 9 9 9 9 9 9 9 9 9 9 9 9 9 9 9 9 9 9 9 9 9 9 10 10 10 9 9 9 9 9 9 9 9 9 9 9 9 9 9 9
9 9 9 9 9 9 9 9 9 9 9 9 9 9 9 9 9 9 9 9 9 9 9 9 9 9 9 9 9 9 9 9 9 9 9 9 9 9 9 9 9 9 9
8 8 8 8 8 8 8 8 8 8 8 8 8 8 8 8 8 8 8 8 8 8 8 8 9 9 9 9 9 8 8 8 8 9 9 9 8 8 8 8 8 8 8
7 8 8 8 8 8 8 8 8 8 8 8 8 8 8 8 8 8 8 8 8 8 8 8 8 8 8 8 8 8 8 8 8 8 8 8 8 8 8 8 8 8 8
7 7 7 7 7 7 7 7 7 7 7 7 7 7 7 7 7 7 7 7 8 8 8 8 8 8 8 8 8 8 8 7 7 7 7 7 7 7 8 7 7 7 7
6 7 6 6 6 7 7 7 7 7 6 6 6 5 6 6 6 7 7 7 7 7 7 7 7 7 7 7 7 7 7 7 7 7 7 7 7 7 7 7 7 7 7
6 6 6 6 6 6 6 6 6 6 6 6 6 5 5 5 5 6 6 6 6 6 7 7 7 7 7 7 7 7 7 7 6 6 6 6 7 6 7 7 7 7 7
5 5 5 5 5 5 5 5 5 5 5 5 5 5 5 5 5 5 5 6 6 6 6 6 6 6 6 6 6 6 6 6 6 6 6 6 6 6 6 6 6 6 6
4 4 5 5 5 4 5 5 5 5 5 5 5 5 5 5 5 5 4 4 5 5 5 6 6 6 6 6 6 6 6 6 6 6 6 6 6 6 6 6 6 6 6
4 4 4 4 4 4 4 4 4 4 4 4 4 4 4 4 4 5 4 4 4 4 5 5 5 5 5 5 5 5 5 5 5 5 5 5 5 5 5 5 5 5 5
3 3 3 3 3 3 3 3 4 4 4 4 4 4 4 4 4 4 4 3 3 3 4 4 4 4 4 4 5 5 4 4 4 4 4 5 5 5 5 5 5 5 5
3 3 3 3 3 3 3 3 3 3 3 3 3 3 3 3 3 3 3 3 2 2 3 3 4 4 4 4 4 4 4 4 4 4 4 4 4 4 4 4 4 4 4
2 2 2 2 2 2 2 2 3 3 3 3 3 3 3 3 3 3 3 3 2 1 2 2 3 3 3 3 3 3 3 4 3 3 3 4 4 3 3 4 4 4 4
1 1 2 2 2 2 2 2 2 2 2 2 2 2 2 2 2 2 2 2 2 2 1 1 2 3 3 3 3 3 3 3 3 3 3 3 3 3 3 3 3 3 3
1 1 1 1 1 1 1 1 1 2 2 2 2 2 2 2 2 2 2 2 1 1 1 1 1 2 2 2 2 2 2 2 2 2 2 2 2 2 2 2 2 2 2
0 0 0 0 0 1 1 1 1 1 1 1 1 1 1 1 1 1 1 1 1 1 1 1 1 1 1 1 1 1 1 2 2 2 2 2 2 2 2 2 2 2 2
-0 -0 -0 -0 -0 -0 -0 0 0 0 0 0 0 0 0 0 0 0 0 0 0 0 0 0 0 0 0 1 1 1 1 1 1 1 1 1 1 1 1 1 1 1 1
-1 -1 -1 -1 -1 -1 -1 -1 -1 -1 -1 -1 -0 -1 -1 -0 -0 -0 -1 -1 -0 -0 -1 -1 -1 -0 -0 -0 -0 -0 -0 0 0 1 1 1 1 1 1 0 0 0 0
-1 -1 -1 -1 -1 -1 -1 -1 -1 -1 -1 -1 -1 -1 -1 -1 -1 -1 -1 -1 -1 -1 -1 -1 -1 -1 -1 -1 -1 -1 -1 -1 -1 -0 -0 -0 -0 -0 -0 -0 -0 -0 -0
-2 -2 -2 -2 -2 -2 -2 -2 -2 -2 -2 -2 -2 -2 -2 -2 -2 -2 -2 -2 -2 -2 -2 -2 -2 -2 -2 -2 -2 -2 -2 -2 -2 -2 -1 -1 -1 -1 -1 -1 -1 -1 -1
-3 -3 -3 -3 -3 -2 -2 -2 -2 -3 -3 -3 -3 -3 -3 -3 -3 -3 -2 -2 -2 -2 -2 -2 -2 -2 -2 -2 -2 -2 -2 -2 -3 -2 -2 -2 -2 -2 -1 -1 -1 -1 -2
-3 -3 -3 -3 -3 -3 -3 -3 -3 -3 -3 -3 -3 -3 -3 -3 -3 -3 -3 -3 -3 -3 -3 -3 -3 -3 -3 -3 -3 -3 -3 -3 -3 -3 -3 -3 -3 -3 -2 -2 -2 -2 -2
-4 -4 -4 -4 -4 -4 -4 -3 -4 -4 -4 -4 -4 -4 -4 -4 -4 -4 -4 -4 -4 -4 -3 -3 -3 -3 -3 -3 -3 -4 -4 -4 -4 -4 -4 -4 -4 -3 -3 -3 -3 -3 -3
-5 -5 -5 -5 -5 -4 -4 -4 -4 -5 -5 -5 -5 -5 -4 -4 -4 -4 -4 -4 -4 -4 -4 -4 -4 -4 -4 -4 -4 -4 -4 -4 -5 -5 -4 -4 -4 -4 -5 -4 -4 -4 -4
Wind_Speed
2 2 1 2 2 2 2 2 2 3 3 3 3 3 3 3 3 3 4 7 6 6 5 5 6 6 6 7 8 8 8 8 8 8 8 7 7 7 7 7 7 7 7
2 1 1 1 1 1 1 2 2 2 2 2 3 3 3 2 3 3 2 4 6 6 5 5 5 5 5 6 7 8 8 8 8 7 7 6 6 6 5 5 5 5 5
2 2 1 1 1 2 2 2 3 2 3 2 2 2 2 2 2 2 2 2 3 5 6 5 4 4 4 5 6 7 7 7 7 7 6 5 5 5 5 4 4 4 5
2 2 1 1 1 2 2 2 2 2 2 2 2 1 1 2 2 2 2 2 2 2 3 5 4 3 3 5 5 6 6 6 6 6 6 5 4 4 4 4 4 4 4
2 2 2 1 2 2 2 2 2 2 2 2 1 1 1 1 1 1 2 1 1 1 1 3 3 3 2 4 4 4 4 5 5 5 5 4 3 4 4 4 3 3 3
2 2 1 2 2 2 2 2 3 3 2 2 2 1 1 0 1 1 1 1 0 0 0 1 1 1 2 3 4 3 3 4 4 4 4 4 4 4 4 3 3 3 3
2 2 1 1 2 2 2 3 3 3 2 2 2 1 1 0 0 0 0 0 1 1 1 0 0 1 1 2 2 2 2 3 4 4 3 4 3 3 3 3 2 2 2
2 2 2 2 2 2 3 2 3 3 2 2 2 3 2 1 1 1 1 1 1 1 1 1 1 1 1 1 1 1 2 2 2 3 3 3 3 3 2 2 2 2 1
2 3 3 3 2 3 3 3 3 4 4 3 2 3 3 3 1 1 2 2 2 2 1 1 2 2 2 2 2 1 1 1 2 2 3 3 3 3 3 2 1 1 1
2 3 3 3 3 2 3 3 3 3 4 4 3 2 2 1 2 2 2 2 2 2 2 1 2 3 3 2 2 1 2 2 2 2 3 3 3 3 2 2 1 1 1
3 3 3 3 3 3 3 3 4 4 4 4 3 3 2 2 2 2 3 3 2 2 3 2 2 3 3 3 3 3 3 3 3 3 3 3 3 4 4 3 3 2 2
3 4 4 4 4 3 4 4 4 5 4 4 4 4 4 3 3 3 3 4 3 3 3 3 3 3 3 4 3 3 3 3 3 4 4 4 3 3 4 4 4 4 4
4 5 4 4 4 4 4 4 4 5 5 5 5 4 4 4 3 3 2 3 3 2 3 3 3 3 3 4 4 4 4 4 3 4 5 4 4 4 3 3 3 4 4
5 5 5 5 5 5 5 5 5 5 5 6 6 5 4 4 4 3 3 3 3 3 3 4 3 4 4 4 5 5 5 5 5 5 5 5 4 4 4 3 4 4 5
5 6 6 6 6 6 6 6 5 6 6 6 6 6 5 4 4 4 4 4 4 4 5 4 3 3 4 5 4 5 6 6 6 6 6 5 5 5 5 5 5 6 6
7 7 7 7 7 7 7 7 6 6 6 6 5 6 6 5 4 4 5 5 5 5 5 4 3 2 4 4 5 5 6 6 8 7 7 6 6 6 6 6 6 6 7
8 8 8 8 8 8 7 7 7 7 8 7 7 7 7 6 5 5 5 5 5 5 6 5 3 3 3 4 4 5 5 6 7 7 7 7 7 8 7 7 7 7 6
8 8 8 8 8 8 8 8 8 8 9 9 9 8 8 6 7 6 5 6 6 6 6 6 5 4 5 5 5 5 5 6 6 6 8 8 9 9 8 8 8 7 7
7 7 8 8 8 8 8 8 9 9 9 9 9 9 9 8 8 7 7 6 5 5 5 6 6 4 4 4 4 4 5 5 5 6 8 8 8 9 9 9 9 9 8
6 7 7 8 8 8 8 8 9 9 9 9 9 9 9 10 9 9 7 7 6 6 6 6 5 5 4 4 4 4 4 4 4 5 6 7 7 8 10 10 10 10 9
6 6 6 7 7 7 7 8 8 9 9 9 9 9 9 10 11 9 8 7 7 7 6 6 6 5 5 4 5 4 5 4 4 4 4 4 5 6 7 9 10 11 11
5 5 6 6 7 7 9 10 9 8 8 9 9 9 9 10 11 12 12 12 10 9 8 7 7 7 8 6 5 5 4 4 5 4 4 5 5 6 7 8 10 11 12
4 5 5 6 7 7 9 10 10 7 8 9 9 9 8 8 10 9 10 11 12 12 12 10 10 10 9 7 7 7 7 7 6 4 4 5 5 6 6 8 11 12 13
4 5 5 6 6 7 7 8 9 7 7 8 8 9 9 8 8 9 8 8 9 9 10 10 9 9 9 8 8 8 7 6 5 4 4 5 5 6 5 7 10 11 12
4 5 5 6 6 6 7 7 7 5 6 7 8 8 9 9 10 10 8 8 8 8 9 11 12 12 12 11 9 6 6 6 6 5 4 4 4 4 5 6 7 9 10
4 4 4 5 5 5 6 6 7 4 5 6 6 7 9 10 10 10 9 8 9 9 7 7 8 9 10 10 11 9 8 7 6 5 5 4 4 2 3 4 4 6 7
Wind_Direction
137 130 115 127 130 128 134 120 119 111 111 109 101 93 83 80 81 83 86 68 72 83 92 102 104 107 114 116 117 117 113 110 114 115 111 109 107 103 103 103 99 98 95
139 130 139 129 130 147 165 149 128 122 121 109 100 89 83 81 80 76 84 79 69 75 81 92 112 115 115 118 120 117 114 112 109 116 118 114 110 109 106 110 108 106 105
163 158 163 153 147 166 158 137 127 119 121 113 99 78 73 68 77 75 70 71 73 67 68 72 87 112 123 123 121 119 114 110 108 105 109 118 122 118 112 119 119 115 111
181 178 171 160 162 166 154 142 141 137 140 133 119 83 66 64 72 80 82 81 78 75 72 68 68 83 111 126 125 120 118 114 112 111 106 102 116 125 118 110 115 117 118
180 184 180 164 158 151 153 156 165 161 153 141 125 94 67 59 61 79 84 78 66 69 74 66 60 56 95 121 121 129 132 130 125 122 116 109 110 115 120 119 122 128 124
152 149 159 165 154 145 152 167 174 162 160 152 130 98 46 63 75 72 73 116 109 89 119 119 89 61 87 124 124 130 139 148 146 142 128 120 118 119 120 123 131 137 130
139 123 122 139 154 162 166 172 175 166 161 156 149 133 76 68 129 16 52 179 197 198 172 163 171 194 153 109 130 151 154 164 160 157 144 139 137 130 131 135 128 130 142
148 139 147 160 163 163 162 165 167 181 177 180 188 181 189 209 206 291 233 215 229 213 196 198 248 220 217 206 143 131 158 172 172 176 165 154 154 164 160 162 164 136 120
173 172 174 165 173 175 183 185 185 181 187 192 198 200 192 208 216 225 245 228 232 237 229 218 245 235 220 226 219 184 154 185 202 206 186 171 170 170 170 173 164 180 180
191 191 187 176 178 186 190 194 192 194 190 192 202 234 251 209 199 204 220 228 242 244 242 237 243 235 222 215 202 197 200 206 207 211 202 195 193 200 199 202 215 228 236
210 204 196 189 188 199 203 202 200 198 198 200 202 206 211 218 226 213 227 230 239 249 251 248 249 240 229 218 207 203 213 228 217 214 219 218 223 223 217 222 235 245 258
221 218 211 206 200 206 215 214 212 208 207 209 208 206 206 203 205 209 228 229 242 251 252 253 246 236 235 226 212 203 214 221 220 226 230 233 238 241 231 240 246 250 256
230 224 220 218 213 213 216 218 214 217 214 212 215 220 225 227 222 222 216 236 247 261 247 243 238 236 232 227 215 210 209 213 226 235 238 239 243 250 251 265 275 272 264
230 230 225 221 219 217 217 217 216 220 218 217 220 223 231 233 225 219 217 220 239 253 244 244 231 223 225 226 226 211 211 214 227 238 240 238 241 247 254 260 270 278 275
234 228 225 224 223 220 221 218 217 220 218 221 222 223 227 232 232 227 219 213 224 242 248 247 234 215 225 230 225 222 222 220 228 235 239 234 232 242 249 253 260 268 264
231 227 223 223 225 222 221 220 222 223 218 223 224 226 230 231 231 230 222 222 230 233 246 248 253 238 221 233 231 231 229 225 223 226 232 230 233 240 245 247 254 263 262
232 229 224 223 223 223 223 221 225 226 222 223 225 226 229 230 230 233 231 226 226 223 240 255 266 257 240 236 235 233 228 224 220 219 225 232 237 241 241 242 247 254 263
233 232 227 223 222 222 222 223 227 229 224 223 223 224 228 227 229 231 233 227 225 224 231 247 257 254 251 237 235 233 230 228 225 223 227 235 238 238 239 239 242 247 253
233 232 228 224 222 222 223 225 228 229 227 227 227 226 228 227 230 230 229 228 229 230 229 237 249 252 256 241 233 235 234 232 229 229 231 234 238 240 241 241 242 244 243
233 232 231 230 227 224 225 226 229 229 228 230 231 232 231 229 230 231 226 230 229 226 225 230 239 244 246 244 233 231 241 240 244 240 233 237 240 242 242 243 243 242 242
239 236 235 235 232 228 226 225 230 230 229 231 232 234 234 233 235 231 228 228 225 223 223 226 233 241 241 233 234 236 243 256 259 238 242 240 237 240 240 239 240 240 241
248 243 239 239 239 236 229 228 232 234 232 231 234 236 237 236 234 232 232 232 230 225 224 227 233 235 239 241 240 236 238 250 257 227 242 258 244 247 244 241 242 243 243
250 249 249 244 245 244 236 232 232 236 238 236 235 236 237 234 232 233 236 237 238 238 237 233 235 236 238 234 233 236 237 242 253 241 235 255 248 253 248 244 247 247 244
253 253 253 252 250 249 242 239 235 237 239 236 235 233 234 233 230 232 235 237 238 238 239 239 241 243 243 240 233 236 241 251 266 248 230 251 251 256 254 250 249 244 242
257 256 256 252 249 252 246 243 241 239 240 242 238 235 232 234 233 231 233 236 242 247 250 246 247 249 249 241 233 228 225 229 250 248 233 240 251 266 267 259 246 242 244
256 258 260 257 252 254 252 248 244 240 242 246 244 237 235 237 237 232 229 231 239 244 242 245 250 250 246 238 229 222 220 226 241 245 218 218 235 244 258 255 252 249 246
Height
1536 1537 1538 1539 1540 1540 1541 1542 1543 1544 1545 1545 1546 1547 1548 1548 1549 1550 1550 1550 1551 1552 1552 1552 1553 1553 1554 1554 1554 1555 1555 1555 1556 1556 1557 1557 1558 1558 1558 1559 1559 1559 1559
1534 1535 1536 1537 1538 1539 1540 1540 1541 1542 1543 1544 1544 1545 1546 1547 1548 1548 1549 1549 1550 1550 1551 1552 1552 1552 1553 1553 1554 1554 1554 1555 1555 1555 1556 1556 1557 1557 1557 1558 1558 1558 1558
1532 1533 1534 1535 1535 1536 1537 1538 1539 1540 1541 1542 1543 1544 1544 1545 1546 1547 1547 1547 1548 1549 1549 1550 1550 1551 1552 1552 1553 1553 1553 1554 1554 1554 1555 1555 1556 1556 1556 1556 1557 1557 1557
1529 1530 1531 1532 1533 1534 1535 1536 1537 1538 1538 1539 1540 1541 1542 1543 1544 1545 1545 1545 1546 1547 1548 1548 1549 1549 1550 1551 1551 1551 1552 1553 1553 1553 1554 1554 1554 1554 1555 1555 1556 1556 1556
1526 1527 1528 1529 1530 1531 1532 1533 1534 1536 1536 1537 1538 1539 1540 1541 1542 1543 1543 1543 1544 1545 1545 1546 1546 1547 1548 1549 1549 1550 1550 1551 1551 1552 1552 1552 1552 1553 1553 1554 1554 1554 1554
1523 1524 1525 1526 1527 1528 1529 1530 1532 1533 1534 1535 1535 1537 1538 1539 1539 1540 1541 1541 1542 1543 1543 1544 1544 1545 1545 1546 1547 1548 1549 1549 1549 1550 1550 1551 1551 1551 1552 1552 1552 1552 1552
1520 1521 1522 1523 1524 1525 1526 1527 1528 1530 1531 1532 1533 1534 1535 1536 1537 1537 1538 1539 1539 1540 1541 1541 1542 1543 1543 1544 1545 1546 1546 1547 1547 1548 1548 1549 1550 1550 1550 1550 1550 1550 1550
1517 1518 1519 1520 1521 1522 1523 1524 1525 1526 1528 1529 1530 1531 1533 1535 1534 1535 1535 1536 1537 1537 1538 1538 1539 1540 1540 1541 1542 1543 1544 1545 1545 1546 1546 1547 1547 1548 1548 1548 1548 1548 1548
1514 1515 1516 1517 1518 1519 1520 1520 1521 1523 1524 1526 1527 1529 1530 1530 1531 1532 1532 1533 1534 1534 1534 1535 1536 1537 1538 1538 1539 1540 1541 1542 1543 1543 1544 1544 1545 1545 1546 1546 1546 1546 1546
1510 1511 1513 1513 1514 1515 1516 1517 1518 1519 1521 1522 1523 1525 1526 1526 1528 1529 1530 1530 1531 1531 1532 1532 1533 1534 1534 1535 1536 1536 1537 1539 1539 1540 1541 1541 1542 1542 1543 1543 1543 1543 1543
1507 1508 1509 1510 1511 1512 1513 1514 1515 1516 1517 1518 1519 1521 1522 1523 1524 1525 1526 1527 1528 1528 1529 1529 1530 1530 1531 1532 1532 1533 1534 1535 1536 1536 1537 1538 1539 1539 1539 1540 1540 1540 1540
1503 1504 1505 1506 1507 1508 1510 1510 1511 1512 1513 1515 1516 1517 1519 1519 1520 1522 1522 1523 1524 1524 1525 1526 1526 1527 1527 1528 1528 1529 1530 1531 1532 1533 1533 1534 1535 1535 1535 1536 1537 1537 1537
1498 1499 1501 1502 1503 1504 1506 1507 1508 1508 1509 1511 1512 1513 1515 1516 1517 1518 1519 1520 1520 1521 1521 1522 1522 1523 1523 1524 1524 1525 1526 1527 1527 1528 1529 1530 1531 1531 1531 1532 1532 1533 1533
1494 1495 1496 1497 1499 1500 1501 1502 1503 1504 1505 1506 1508 1509 1511 1512 1513 1514 1515 1516 1517 1517 1517 1518 1518 1519 1519 1520 1520 1521 1522 1523 1523 1524 1524 1525 1526 1527 1527 1527 1528 1528 1529
1489 1490 1491 1492 1494 1495 1496 1497 1499 1500 1501 1502 1503 1505 1506 1507 1508 1510 1511 1513 1514 1513 1513 1514 1514 1514 1515 1516 1516 1517 1517 1518 1518 1519 1520 1520 1521 1522 1522 1523 1523 1524 1524
1484 1485 1486 1487 1489 1490 1491 1492 1493 1494 1496 1497 1498 1500 1501 1502 1503 1505 1506 1507 1509 1509 1508 1508 1509 1510 1510 1511 1512 1512 1512 1513 1514 1514 1514 1515 1516 1517 1517 1518 1518 1519 1519
1478 1479 1480 1481 1483 1484 1485 1486 1487 1489 1490 1491 1493 1494 1496 1497 1498 1499 1501 1502 1503 1504 1503 1503 1504 1505 1505 1506 1507 1507 1508 1508 1508 1509 1509 1510 1511 1512 1512 1513 1513 1513 1514
1473 1473 1474 1475 1477 1478 1479 1480 1482 1483 1484 1485 1487 1488 1489 1491 1492 1493 1495 1496 1497 1498 1499 1498 1499 1500 1501 1501 1502 1502 1503 1503 1503 1504 1505 1506 1506 1506 1507 1507 1507 1508 1508
1467 1467 1468 1469 1470 1472 1473 1474 1476 1476 1478 1479 1480 1481 1483 1485 1486 1487 1489 1490 1491 1492 1493 1493 1493 1494 1495 1496 1496 1497 1497 1498 1498 1499 1500 1500 1500 1501 1501 1502 1502 1502 1502
1461 1462 1463 1464 1465 1466 1467 1468 1469 1470 1471 1472 1474 1475 1476 1478 1480 1481 1482 1483 1485 1486 1487 1488 1488 1489 1490 1490 1491 1491 1492 1493 1493 1494 1494 1495 1495 1495 1495 1496 1496 1495 1496
1455 1456 1457 1458 1459 1460 1461 1462 1463 1464 1465 1466 1467 1468 1470 1471 1473 1475 1476 1477 1479 1480 1481 1482 1482 1483 1484 1484 1485 1486 1486 1486 1487 1488 1488 1488 1489 1489 1489 1489 1489 1489 1489
1450 1450 1451 1452 1453 1454 1455 1456 1457 1457 1458 1459 1460 1462 1463 1465 1466 1468 1469 1471 1473 1473 1475 1476 1476 1477 1477 1479 1480 1481 1481 1481 1481 1482 1482 1482 1483 1482 1482 1482 1482 1483 1483
1444 1445 1445 1446 1447 1448 1449 1450 1451 1452 1452 1453 1454 1455 1457 1458 1460 1461 1463 1465 1466 1467 1469 1470 1470 1470 1472 1473 1475 1475 1475 1475 1475 1476 1477 1475 1476 1475 1476 1476 1476 1476 1476
1439 1439 1440 1441 1442 1442 1443 1444 1445 1446 1447 1447 1448 1450 1451 1452 1454 1455 1457 1458 1459 1460 1462 1463 1464 1465 1467 1468 1469 1470 1470 1470 1470 1470 1471 1470 1469 1469 1469 1469 1469 1469 1469
1434 1434 1435 1435 1436 1437 1438 1439 1440 1440 1441 1442 1443 1444 1445 1446 1448 1450 1451 1451 1453 1454 1456 1457 1458 1459 1460 1462 1463 1464 1463 1464 1463 1463 1464 1464 1463 1463 1463 1462 1463 1463 1462
1429 1430 1430 1430 1431 1432 1433 1433 1434 1435 1435 1436 1437 1438 1439 1441 1442 1443 1444 1445 1446 1448 1450 1450 1451 1452 1454 1454 1455 1456 1457 1457 1457 1457 1457 1458 1457 1457 1456 1455 1456 1456 1456